<?xml version="1.0"?>
<gpx xmlns="http://www.topografix.com/GPX/1/1" xmlns:xsi="http://www.w3.org/2001/XMLSchema-instance" version="1.1" creator="GPX RubyGem 1.0.0 -- http://dougfales.github.io/gpx/" xsi:schemaLocation="http://www.topografix.com/GPX/1/1 http://www.topografix.com/GPX/1/1/gpx.xsd">
  <metadata>
    <name/>
    <time>2026-05-07T19:49:15+00:00</time>
    <bound minlat="90.0" minlon="180.0" maxlat="-90.0" maxlon="-180.0"/>
  </metadata>
  <trk>
    <name/>
    <trkseg>
      <trkpt lat="46.001542" lon="6.947673">
        <time>1970-01-01T00:00:00+00:00</time>
        <ele>1475.0</ele>
      </trkpt>
      <trkpt lat="46.00164" lon="6.947626">
        <time>1970-01-01T00:00:00+00:00</time>
        <ele>1476.0</ele>
      </trkpt>
      <trkpt lat="46.001585" lon="6.94763">
        <time>1970-01-01T00:00:00+00:00</time>
        <ele>1475.0</ele>
      </trkpt>
      <trkpt lat="46.00163" lon="6.947642">
        <time>1970-01-01T00:00:00+00:00</time>
        <ele>1476.0</ele>
      </trkpt>
      <trkpt lat="46.00155" lon="6.947764">
        <time>1970-01-01T00:00:00+00:00</time>
        <ele>1476.0</ele>
      </trkpt>
      <trkpt lat="46.001584" lon="6.947701">
        <time>1970-01-01T00:00:00+00:00</time>
        <ele>1476.0</ele>
      </trkpt>
      <trkpt lat="46.001556" lon="6.947643">
        <time>1970-01-01T00:00:00+00:00</time>
        <ele>1475.0</ele>
      </trkpt>
      <trkpt lat="46.001525" lon="6.947706">
        <time>1970-01-01T00:00:00+00:00</time>
        <ele>1475.0</ele>
      </trkpt>
      <trkpt lat="46.00146" lon="6.94768">
        <time>1970-01-01T00:00:00+00:00</time>
        <ele>1475.0</ele>
      </trkpt>
      <trkpt lat="46.003102" lon="6.946366">
        <time>1970-01-01T00:00:00+00:00</time>
        <ele>1473.0</ele>
      </trkpt>
      <trkpt lat="46.003401" lon="6.94644">
        <time>1970-01-01T00:00:00+00:00</time>
        <ele>1475.0</ele>
      </trkpt>
      <trkpt lat="46.003583" lon="6.946759">
        <time>1970-01-01T00:00:00+00:00</time>
        <ele>1479.0</ele>
      </trkpt>
      <trkpt lat="46.003844" lon="6.946991">
        <time>1970-01-01T00:00:00+00:00</time>
        <ele>1483.0</ele>
      </trkpt>
      <trkpt lat="46.003595" lon="6.94701">
        <time>1970-01-01T00:00:00+00:00</time>
        <ele>1482.0</ele>
      </trkpt>
      <trkpt lat="46.003492" lon="6.94713">
        <time>1970-01-01T00:00:00+00:00</time>
        <ele>1482.0</ele>
      </trkpt>
      <trkpt lat="46.003824" lon="6.946904">
        <time>1970-01-01T00:00:00+00:00</time>
        <ele>1482.0</ele>
      </trkpt>
      <trkpt lat="46.003781" lon="6.946853">
        <time>1970-01-01T00:00:00+00:00</time>
        <ele>1481.0</ele>
      </trkpt>
      <trkpt lat="46.003797" lon="6.947039">
        <time>1970-01-01T00:00:00+00:00</time>
        <ele>1483.0</ele>
      </trkpt>
      <trkpt lat="46.003745" lon="6.947">
        <time>1970-01-01T00:00:00+00:00</time>
        <ele>1482.0</ele>
      </trkpt>
      <trkpt lat="46.00395" lon="6.946974">
        <time>1970-01-01T00:00:00+00:00</time>
        <ele>1483.0</ele>
      </trkpt>
      <trkpt lat="46.004074" lon="6.94725">
        <time>1970-01-01T00:00:00+00:00</time>
        <ele>1487.0</ele>
      </trkpt>
      <trkpt lat="46.004194" lon="6.947263">
        <time>1970-01-01T00:00:00+00:00</time>
        <ele>1487.0</ele>
      </trkpt>
      <trkpt lat="46.004401" lon="6.947605">
        <time>1970-01-01T00:00:00+00:00</time>
        <ele>1492.0</ele>
      </trkpt>
      <trkpt lat="46.005785" lon="6.948648">
        <time>1970-01-01T00:00:00+00:00</time>
        <ele>1516.0</ele>
      </trkpt>
      <trkpt lat="46.006946" lon="6.949698">
        <time>1970-01-01T00:00:00+00:00</time>
        <ele>1544.0</ele>
      </trkpt>
      <trkpt lat="46.008886" lon="6.95102">
        <time>1970-01-01T00:00:00+00:00</time>
        <ele>1644.0</ele>
      </trkpt>
      <trkpt lat="46.010119" lon="6.952004">
        <time>1970-01-01T00:00:00+00:00</time>
        <ele>1696.0</ele>
      </trkpt>
      <trkpt lat="46.011508" lon="6.952836">
        <time>1970-01-01T00:00:00+00:00</time>
        <ele>1747.0</ele>
      </trkpt>
      <trkpt lat="46.011681" lon="6.953726">
        <time>1970-01-01T00:00:00+00:00</time>
        <ele>1770.0</ele>
      </trkpt>
      <trkpt lat="46.01392" lon="6.955707">
        <time>1970-01-01T00:00:00+00:00</time>
        <ele>1847.0</ele>
      </trkpt>
      <trkpt lat="46.013867" lon="6.955683">
        <time>1970-01-01T00:00:00+00:00</time>
        <ele>1847.0</ele>
      </trkpt>
      <trkpt lat="46.014132" lon="6.956048">
        <time>1970-01-01T00:00:00+00:00</time>
        <ele>1854.0</ele>
      </trkpt>
      <trkpt lat="46.01407" lon="6.956174">
        <time>1970-01-01T00:00:00+00:00</time>
        <ele>1856.0</ele>
      </trkpt>
      <trkpt lat="46.020616" lon="6.970691">
        <time>1970-01-01T00:00:00+00:00</time>
        <ele>2195.0</ele>
      </trkpt>
      <trkpt lat="46.02026" lon="6.970782">
        <time>1970-01-01T00:00:00+00:00</time>
        <ele>2194.0</ele>
      </trkpt>
      <trkpt lat="46.01993" lon="6.971751">
        <time>1970-01-01T00:00:00+00:00</time>
        <ele>2209.0</ele>
      </trkpt>
      <trkpt lat="46.01974" lon="6.97189">
        <time>1970-01-01T00:00:00+00:00</time>
        <ele>2212.0</ele>
      </trkpt>
      <trkpt lat="46.019508" lon="6.97196">
        <time>1970-01-01T00:00:00+00:00</time>
        <ele>2218.0</ele>
      </trkpt>
      <trkpt lat="46.019331" lon="6.971816">
        <time>1970-01-01T00:00:00+00:00</time>
        <ele>2218.0</ele>
      </trkpt>
      <trkpt lat="46.019138" lon="6.971812">
        <time>1970-01-01T00:00:00+00:00</time>
        <ele>2219.0</ele>
      </trkpt>
      <trkpt lat="46.018722" lon="6.972168">
        <time>1970-01-01T00:00:00+00:00</time>
        <ele>2229.0</ele>
      </trkpt>
      <trkpt lat="46.01809" lon="6.972526">
        <time>1970-01-01T00:00:00+00:00</time>
        <ele>2244.0</ele>
      </trkpt>
      <trkpt lat="46.017862" lon="6.972565">
        <time>1970-01-01T00:00:00+00:00</time>
        <ele>2249.0</ele>
      </trkpt>
      <trkpt lat="46.017049" lon="6.972308">
        <time>1970-01-01T00:00:00+00:00</time>
        <ele>2256.0</ele>
      </trkpt>
      <trkpt lat="46.01674" lon="6.972309">
        <time>1970-01-01T00:00:00+00:00</time>
        <ele>2261.0</ele>
      </trkpt>
      <trkpt lat="46.016464" lon="6.972094">
        <time>1970-01-01T00:00:00+00:00</time>
        <ele>2264.0</ele>
      </trkpt>
      <trkpt lat="46.016179" lon="6.971403">
        <time>1970-01-01T00:00:00+00:00</time>
        <ele>2268.0</ele>
      </trkpt>
      <trkpt lat="46.015985" lon="6.971147">
        <time>1970-01-01T00:00:00+00:00</time>
        <ele>2266.0</ele>
      </trkpt>
      <trkpt lat="46.0157" lon="6.971188">
        <time>1970-01-01T00:00:00+00:00</time>
        <ele>2266.0</ele>
      </trkpt>
      <trkpt lat="46.014834" lon="6.971675">
        <time>1970-01-01T00:00:00+00:00</time>
        <ele>2266.0</ele>
      </trkpt>
      <trkpt lat="46.014242" lon="6.971865">
        <time>1970-01-01T00:00:00+00:00</time>
        <ele>2267.0</ele>
      </trkpt>
      <trkpt lat="46.013254" lon="6.971735">
        <time>1970-01-01T00:00:00+00:00</time>
        <ele>2264.0</ele>
      </trkpt>
      <trkpt lat="46.012919" lon="6.971776">
        <time>1970-01-01T00:00:00+00:00</time>
        <ele>2264.0</ele>
      </trkpt>
      <trkpt lat="46.012262" lon="6.972271">
        <time>1970-01-01T00:00:00+00:00</time>
        <ele>2270.0</ele>
      </trkpt>
      <trkpt lat="46.011968" lon="6.97214">
        <time>1970-01-01T00:00:00+00:00</time>
        <ele>2273.0</ele>
      </trkpt>
      <trkpt lat="46.010895" lon="6.971892">
        <time>1970-01-01T00:00:00+00:00</time>
        <ele>2278.0</ele>
      </trkpt>
      <trkpt lat="46.010272" lon="6.971412">
        <time>1970-01-01T00:00:00+00:00</time>
        <ele>2278.0</ele>
      </trkpt>
      <trkpt lat="46.009522" lon="6.971105">
        <time>1970-01-01T00:00:00+00:00</time>
        <ele>2276.0</ele>
      </trkpt>
      <trkpt lat="46.008752" lon="6.97047">
        <time>1970-01-01T00:00:00+00:00</time>
        <ele>2281.0</ele>
      </trkpt>
      <trkpt lat="46.008567" lon="6.970393">
        <time>1970-01-01T00:00:00+00:00</time>
        <ele>2289.0</ele>
      </trkpt>
      <trkpt lat="46.008417" lon="6.970197">
        <time>1970-01-01T00:00:00+00:00</time>
        <ele>2291.0</ele>
      </trkpt>
      <trkpt lat="46.008059" lon="6.969922">
        <time>1970-01-01T00:00:00+00:00</time>
        <ele>2298.0</ele>
      </trkpt>
      <trkpt lat="46.007966" lon="6.969712">
        <time>1970-01-01T00:00:00+00:00</time>
        <ele>2298.0</ele>
      </trkpt>
      <trkpt lat="46.007775" lon="6.969649">
        <time>1970-01-01T00:00:00+00:00</time>
        <ele>2302.0</ele>
      </trkpt>
      <trkpt lat="46.00627" lon="6.969734">
        <time>1970-01-01T00:00:00+00:00</time>
        <ele>2336.0</ele>
      </trkpt>
      <trkpt lat="46.006061" lon="6.969656">
        <time>1970-01-01T00:00:00+00:00</time>
        <ele>2343.0</ele>
      </trkpt>
      <trkpt lat="46.005892" lon="6.96947">
        <time>1970-01-01T00:00:00+00:00</time>
        <ele>2345.0</ele>
      </trkpt>
      <trkpt lat="46.005745" lon="6.969166">
        <time>1970-01-01T00:00:00+00:00</time>
        <ele>2338.0</ele>
      </trkpt>
      <trkpt lat="46.005574" lon="6.969055">
        <time>1970-01-01T00:00:00+00:00</time>
        <ele>2335.0</ele>
      </trkpt>
      <trkpt lat="46.005366" lon="6.969195">
        <time>1970-01-01T00:00:00+00:00</time>
        <ele>2334.0</ele>
      </trkpt>
      <trkpt lat="46.005184" lon="6.969586">
        <time>1970-01-01T00:00:00+00:00</time>
        <ele>2340.0</ele>
      </trkpt>
      <trkpt lat="46.005045" lon="6.970098">
        <time>1970-01-01T00:00:00+00:00</time>
        <ele>2354.0</ele>
      </trkpt>
      <trkpt lat="46.004828" lon="6.970457">
        <time>1970-01-01T00:00:00+00:00</time>
        <ele>2362.0</ele>
      </trkpt>
      <trkpt lat="46.005036" lon="6.970468">
        <time>1970-01-01T00:00:00+00:00</time>
        <ele>2373.0</ele>
      </trkpt>
      <trkpt lat="46.004732" lon="6.970967">
        <time>1970-01-01T00:00:00+00:00</time>
        <ele>2376.0</ele>
      </trkpt>
      <trkpt lat="46.004991" lon="6.970883">
        <time>1970-01-01T00:00:00+00:00</time>
        <ele>2391.0</ele>
      </trkpt>
      <trkpt lat="46.004792" lon="6.971225">
        <time>1970-01-01T00:00:00+00:00</time>
        <ele>2388.0</ele>
      </trkpt>
      <trkpt lat="46.00485" lon="6.971453">
        <time>1970-01-01T00:00:00+00:00</time>
        <ele>2399.0</ele>
      </trkpt>
      <trkpt lat="46.004733" lon="6.972393">
        <time>1970-01-01T00:00:00+00:00</time>
        <ele>2417.0</ele>
      </trkpt>
      <trkpt lat="46.004573" lon="6.972848">
        <time>1970-01-01T00:00:00+00:00</time>
        <ele>2429.0</ele>
      </trkpt>
      <trkpt lat="46.004314" lon="6.973052">
        <time>1970-01-01T00:00:00+00:00</time>
        <ele>2419.0</ele>
      </trkpt>
      <trkpt lat="46.004324" lon="6.973295">
        <time>1970-01-01T00:00:00+00:00</time>
        <ele>2424.0</ele>
      </trkpt>
      <trkpt lat="46.004473" lon="6.973579">
        <time>1970-01-01T00:00:00+00:00</time>
        <ele>2447.0</ele>
      </trkpt>
      <trkpt lat="46.004366" lon="6.973737">
        <time>1970-01-01T00:00:00+00:00</time>
        <ele>2450.0</ele>
      </trkpt>
      <trkpt lat="46.004072" lon="6.973952">
        <time>1970-01-01T00:00:00+00:00</time>
        <ele>2435.0</ele>
      </trkpt>
      <trkpt lat="46.004026" lon="6.974177">
        <time>1970-01-01T00:00:00+00:00</time>
        <ele>2429.0</ele>
      </trkpt>
      <trkpt lat="46.004021" lon="6.974129">
        <time>1970-01-01T00:00:00+00:00</time>
        <ele>2429.0</ele>
      </trkpt>
      <trkpt lat="46.004194" lon="6.974705">
        <time>1970-01-01T00:00:00+00:00</time>
        <ele>2447.0</ele>
      </trkpt>
      <trkpt lat="46.003917" lon="6.974797">
        <time>1970-01-01T00:00:00+00:00</time>
        <ele>2419.0</ele>
      </trkpt>
      <trkpt lat="46.003902" lon="6.975135">
        <time>1970-01-01T00:00:00+00:00</time>
        <ele>2417.0</ele>
      </trkpt>
      <trkpt lat="46.003961" lon="6.975567">
        <time>1970-01-01T00:00:00+00:00</time>
        <ele>2429.0</ele>
      </trkpt>
      <trkpt lat="46.003797" lon="6.97596">
        <time>1970-01-01T00:00:00+00:00</time>
        <ele>2426.0</ele>
      </trkpt>
      <trkpt lat="46.003575" lon="6.976918">
        <time>1970-01-01T00:00:00+00:00</time>
        <ele>2442.0</ele>
      </trkpt>
      <trkpt lat="46.003354" lon="6.977572">
        <time>1970-01-01T00:00:00+00:00</time>
        <ele>2454.0</ele>
      </trkpt>
      <trkpt lat="46.003219" lon="6.977724">
        <time>1970-01-01T00:00:00+00:00</time>
        <ele>2453.0</ele>
      </trkpt>
      <trkpt lat="46.003111" lon="6.977988">
        <time>1970-01-01T00:00:00+00:00</time>
        <ele>2456.0</ele>
      </trkpt>
      <trkpt lat="46.003004" lon="6.978476">
        <time>1970-01-01T00:00:00+00:00</time>
        <ele>2480.0</ele>
      </trkpt>
      <trkpt lat="46.002788" lon="6.978591">
        <time>1970-01-01T00:00:00+00:00</time>
        <ele>2473.0</ele>
      </trkpt>
      <trkpt lat="46.002721" lon="6.978766">
        <time>1970-01-01T00:00:00+00:00</time>
        <ele>2480.0</ele>
      </trkpt>
      <trkpt lat="46.002567" lon="6.978857">
        <time>1970-01-01T00:00:00+00:00</time>
        <ele>2478.0</ele>
      </trkpt>
      <trkpt lat="46.002179" lon="6.979454">
        <time>1970-01-01T00:00:00+00:00</time>
        <ele>2484.0</ele>
      </trkpt>
      <trkpt lat="46.001932" lon="6.980001">
        <time>1970-01-01T00:00:00+00:00</time>
        <ele>2492.0</ele>
      </trkpt>
      <trkpt lat="46.0015" lon="6.980226">
        <time>1970-01-01T00:00:00+00:00</time>
        <ele>2493.0</ele>
      </trkpt>
      <trkpt lat="46.000486" lon="6.980409">
        <time>1970-01-01T00:00:00+00:00</time>
        <ele>2494.0</ele>
      </trkpt>
      <trkpt lat="45.999884" lon="6.980749">
        <time>1970-01-01T00:00:00+00:00</time>
        <ele>2497.0</ele>
      </trkpt>
      <trkpt lat="45.999762" lon="6.980707">
        <time>1970-01-01T00:00:00+00:00</time>
        <ele>2496.0</ele>
      </trkpt>
      <trkpt lat="45.999398" lon="6.981289">
        <time>1970-01-01T00:00:00+00:00</time>
        <ele>2520.0</ele>
      </trkpt>
      <trkpt lat="45.999297" lon="6.981327">
        <time>1970-01-01T00:00:00+00:00</time>
        <ele>2524.0</ele>
      </trkpt>
      <trkpt lat="45.999048" lon="6.981803">
        <time>1970-01-01T00:00:00+00:00</time>
        <ele>2537.0</ele>
      </trkpt>
      <trkpt lat="45.998601" lon="6.982942">
        <time>1970-01-01T00:00:00+00:00</time>
        <ele>2569.0</ele>
      </trkpt>
      <trkpt lat="45.998534" lon="6.983254">
        <time>1970-01-01T00:00:00+00:00</time>
        <ele>2577.0</ele>
      </trkpt>
      <trkpt lat="45.997626" lon="6.985122">
        <time>1970-01-01T00:00:00+00:00</time>
        <ele>2640.0</ele>
      </trkpt>
      <trkpt lat="45.997287" lon="6.985406">
        <time>1970-01-01T00:00:00+00:00</time>
        <ele>2656.0</ele>
      </trkpt>
      <trkpt lat="45.997004" lon="6.985844">
        <time>1970-01-01T00:00:00+00:00</time>
        <ele>2673.0</ele>
      </trkpt>
      <trkpt lat="45.996997" lon="6.985925">
        <time>1970-01-01T00:00:00+00:00</time>
        <ele>2677.0</ele>
      </trkpt>
      <trkpt lat="45.997201" lon="6.986131">
        <time>1970-01-01T00:00:00+00:00</time>
        <ele>2688.0</ele>
      </trkpt>
      <trkpt lat="45.997205" lon="6.986215">
        <time>1970-01-01T00:00:00+00:00</time>
        <ele>2693.0</ele>
      </trkpt>
      <trkpt lat="45.997316" lon="6.986342">
        <time>1970-01-01T00:00:00+00:00</time>
        <ele>2697.0</ele>
      </trkpt>
      <trkpt lat="45.996981" lon="6.986432">
        <time>1970-01-01T00:00:00+00:00</time>
        <ele>2709.0</ele>
      </trkpt>
      <trkpt lat="45.996881" lon="6.986369">
        <time>1970-01-01T00:00:00+00:00</time>
        <ele>2705.0</ele>
      </trkpt>
      <trkpt lat="45.996756" lon="6.986478">
        <time>1970-01-01T00:00:00+00:00</time>
        <ele>2706.0</ele>
      </trkpt>
      <trkpt lat="45.996663" lon="6.986688">
        <time>1970-01-01T00:00:00+00:00</time>
        <ele>2708.0</ele>
      </trkpt>
      <trkpt lat="45.996654" lon="6.98664">
        <time>1970-01-01T00:00:00+00:00</time>
        <ele>2706.0</ele>
      </trkpt>
      <trkpt lat="45.996634" lon="6.986785">
        <time>1970-01-01T00:00:00+00:00</time>
        <ele>2711.0</ele>
      </trkpt>
      <trkpt lat="45.996671" lon="6.986648">
        <time>1970-01-01T00:00:00+00:00</time>
        <ele>2707.0</ele>
      </trkpt>
      <trkpt lat="45.996614" lon="6.986643">
        <time>1970-01-01T00:00:00+00:00</time>
        <ele>2705.0</ele>
      </trkpt>
      <trkpt lat="45.99664" lon="6.986702">
        <time>1970-01-01T00:00:00+00:00</time>
        <ele>2708.0</ele>
      </trkpt>
      <trkpt lat="45.996654" lon="6.986292">
        <time>1970-01-01T00:00:00+00:00</time>
        <ele>2693.0</ele>
      </trkpt>
      <trkpt lat="45.996683" lon="6.986423">
        <time>1970-01-01T00:00:00+00:00</time>
        <ele>2701.0</ele>
      </trkpt>
      <trkpt lat="45.996834" lon="6.986526">
        <time>1970-01-01T00:00:00+00:00</time>
        <ele>2709.0</ele>
      </trkpt>
      <trkpt lat="45.996616" lon="6.986533">
        <time>1970-01-01T00:00:00+00:00</time>
        <ele>2701.0</ele>
      </trkpt>
      <trkpt lat="45.996536" lon="6.98695">
        <time>1970-01-01T00:00:00+00:00</time>
        <ele>2713.0</ele>
      </trkpt>
      <trkpt lat="45.996439" lon="6.98711">
        <time>1970-01-01T00:00:00+00:00</time>
        <ele>2713.0</ele>
      </trkpt>
      <trkpt lat="45.996502" lon="6.987379">
        <time>1970-01-01T00:00:00+00:00</time>
        <ele>2724.0</ele>
      </trkpt>
      <trkpt lat="45.996363" lon="6.987654">
        <time>1970-01-01T00:00:00+00:00</time>
        <ele>2726.0</ele>
      </trkpt>
      <trkpt lat="45.996426" lon="6.987958">
        <time>1970-01-01T00:00:00+00:00</time>
        <ele>2738.0</ele>
      </trkpt>
      <trkpt lat="45.996113" lon="6.988501">
        <time>1970-01-01T00:00:00+00:00</time>
        <ele>2741.0</ele>
      </trkpt>
      <trkpt lat="45.996042" lon="6.988906">
        <time>1970-01-01T00:00:00+00:00</time>
        <ele>2750.0</ele>
      </trkpt>
      <trkpt lat="45.996084" lon="6.989001">
        <time>1970-01-01T00:00:00+00:00</time>
        <ele>2754.0</ele>
      </trkpt>
      <trkpt lat="45.995813" lon="6.989539">
        <time>1970-01-01T00:00:00+00:00</time>
        <ele>2757.0</ele>
      </trkpt>
      <trkpt lat="45.99569" lon="6.989975">
        <time>1970-01-01T00:00:00+00:00</time>
        <ele>2759.0</ele>
      </trkpt>
      <trkpt lat="45.995655" lon="6.990586">
        <time>1970-01-01T00:00:00+00:00</time>
        <ele>2764.0</ele>
      </trkpt>
      <trkpt lat="45.995711" lon="6.990744">
        <time>1970-01-01T00:00:00+00:00</time>
        <ele>2768.0</ele>
      </trkpt>
      <trkpt lat="45.995616" lon="6.99125">
        <time>1970-01-01T00:00:00+00:00</time>
        <ele>2763.0</ele>
      </trkpt>
      <trkpt lat="45.995706" lon="6.99148">
        <time>1970-01-01T00:00:00+00:00</time>
        <ele>2766.0</ele>
      </trkpt>
      <trkpt lat="45.996007" lon="6.991674">
        <time>1970-01-01T00:00:00+00:00</time>
        <ele>2784.0</ele>
      </trkpt>
      <trkpt lat="45.996267" lon="6.992092">
        <time>1970-01-01T00:00:00+00:00</time>
        <ele>2794.0</ele>
      </trkpt>
      <trkpt lat="45.996817" lon="6.993242">
        <time>1970-01-01T00:00:00+00:00</time>
        <ele>2809.0</ele>
      </trkpt>
      <trkpt lat="45.996955" lon="6.993778">
        <time>1970-01-01T00:00:00+00:00</time>
        <ele>2818.0</ele>
      </trkpt>
      <trkpt lat="45.996916" lon="6.994587">
        <time>1970-01-01T00:00:00+00:00</time>
        <ele>2825.0</ele>
      </trkpt>
      <trkpt lat="45.996703" lon="6.994999">
        <time>1970-01-01T00:00:00+00:00</time>
        <ele>2827.0</ele>
      </trkpt>
      <trkpt lat="45.996774" lon="6.995071">
        <time>1970-01-01T00:00:00+00:00</time>
        <ele>2829.0</ele>
      </trkpt>
      <trkpt lat="45.996661" lon="6.99503">
        <time>1970-01-01T00:00:00+00:00</time>
        <ele>2827.0</ele>
      </trkpt>
      <trkpt lat="45.996727" lon="6.995029">
        <time>1970-01-01T00:00:00+00:00</time>
        <ele>2828.0</ele>
      </trkpt>
      <trkpt lat="45.996724" lon="6.994968">
        <time>1970-01-01T00:00:00+00:00</time>
        <ele>2827.0</ele>
      </trkpt>
      <trkpt lat="45.996782" lon="6.99505">
        <time>1970-01-01T00:00:00+00:00</time>
        <ele>2829.0</ele>
      </trkpt>
      <trkpt lat="45.996727" lon="6.994993">
        <time>1970-01-01T00:00:00+00:00</time>
        <ele>2827.0</ele>
      </trkpt>
      <trkpt lat="45.996287" lon="6.996043">
        <time>1970-01-01T00:00:00+00:00</time>
        <ele>2846.0</ele>
      </trkpt>
      <trkpt lat="45.996016" lon="6.996409">
        <time>1970-01-01T00:00:00+00:00</time>
        <ele>2855.0</ele>
      </trkpt>
      <trkpt lat="45.995828" lon="6.996876">
        <time>1970-01-01T00:00:00+00:00</time>
        <ele>2873.0</ele>
      </trkpt>
      <trkpt lat="45.994908" lon="6.997179">
        <time>1970-01-01T00:00:00+00:00</time>
        <ele>2895.0</ele>
      </trkpt>
      <trkpt lat="45.994878" lon="6.997408">
        <time>1970-01-01T00:00:00+00:00</time>
        <ele>2902.0</ele>
      </trkpt>
      <trkpt lat="45.994795" lon="6.997485">
        <time>1970-01-01T00:00:00+00:00</time>
        <ele>2905.0</ele>
      </trkpt>
      <trkpt lat="45.994583" lon="6.997474">
        <time>1970-01-01T00:00:00+00:00</time>
        <ele>2909.0</ele>
      </trkpt>
      <trkpt lat="45.994217" lon="6.997251">
        <time>1970-01-01T00:00:00+00:00</time>
        <ele>2903.0</ele>
      </trkpt>
      <trkpt lat="45.994055" lon="6.997298">
        <time>1970-01-01T00:00:00+00:00</time>
        <ele>2904.0</ele>
      </trkpt>
      <trkpt lat="45.993909" lon="6.997497">
        <time>1970-01-01T00:00:00+00:00</time>
        <ele>2907.0</ele>
      </trkpt>
      <trkpt lat="45.993937" lon="6.997525">
        <time>1970-01-01T00:00:00+00:00</time>
        <ele>2908.0</ele>
      </trkpt>
      <trkpt lat="45.993865" lon="6.997554">
        <time>1970-01-01T00:00:00+00:00</time>
        <ele>2907.0</ele>
      </trkpt>
      <trkpt lat="45.993601" lon="6.998872">
        <time>1970-01-01T00:00:00+00:00</time>
        <ele>2931.0</ele>
      </trkpt>
      <trkpt lat="45.992761" lon="7.000358">
        <time>1970-01-01T00:00:00+00:00</time>
        <ele>2960.0</ele>
      </trkpt>
      <trkpt lat="45.991817" lon="7.001123">
        <time>1970-01-01T00:00:00+00:00</time>
        <ele>2998.0</ele>
      </trkpt>
      <trkpt lat="45.990786" lon="7.002262">
        <time>1970-01-01T00:00:00+00:00</time>
        <ele>3036.0</ele>
      </trkpt>
      <trkpt lat="45.990183" lon="7.002714">
        <time>1970-01-01T00:00:00+00:00</time>
        <ele>3055.0</ele>
      </trkpt>
      <trkpt lat="45.989763" lon="7.003205">
        <time>1970-01-01T00:00:00+00:00</time>
        <ele>3074.0</ele>
      </trkpt>
      <trkpt lat="45.989347" lon="7.003318">
        <time>1970-01-01T00:00:00+00:00</time>
        <ele>3090.0</ele>
      </trkpt>
      <trkpt lat="45.989004" lon="7.003293">
        <time>1970-01-01T00:00:00+00:00</time>
        <ele>3094.0</ele>
      </trkpt>
      <trkpt lat="45.988734" lon="7.003529">
        <time>1970-01-01T00:00:00+00:00</time>
        <ele>3098.0</ele>
      </trkpt>
      <trkpt lat="45.987861" lon="7.004616">
        <time>1970-01-01T00:00:00+00:00</time>
        <ele>3101.0</ele>
      </trkpt>
      <trkpt lat="45.987726" lon="7.004874">
        <time>1970-01-01T00:00:00+00:00</time>
        <ele>3101.0</ele>
      </trkpt>
      <trkpt lat="45.987574" lon="7.005525">
        <time>1970-01-01T00:00:00+00:00</time>
        <ele>3101.0</ele>
      </trkpt>
      <trkpt lat="45.987575" lon="7.005822">
        <time>1970-01-01T00:00:00+00:00</time>
        <ele>3101.0</ele>
      </trkpt>
      <trkpt lat="45.987799" lon="7.006611">
        <time>1970-01-01T00:00:00+00:00</time>
        <ele>3110.0</ele>
      </trkpt>
      <trkpt lat="45.987537" lon="7.008038">
        <time>1970-01-01T00:00:00+00:00</time>
        <ele>3137.0</ele>
      </trkpt>
      <trkpt lat="45.987621" lon="7.008117">
        <time>1970-01-01T00:00:00+00:00</time>
        <ele>3141.0</ele>
      </trkpt>
      <trkpt lat="45.987559" lon="7.008465">
        <time>1970-01-01T00:00:00+00:00</time>
        <ele>3150.0</ele>
      </trkpt>
      <trkpt lat="45.987614" lon="7.008921">
        <time>1970-01-01T00:00:00+00:00</time>
        <ele>3168.0</ele>
      </trkpt>
      <trkpt lat="45.987585" lon="7.009187">
        <time>1970-01-01T00:00:00+00:00</time>
        <ele>3180.0</ele>
      </trkpt>
      <trkpt lat="45.98765" lon="7.009599">
        <time>1970-01-01T00:00:00+00:00</time>
        <ele>3199.0</ele>
      </trkpt>
      <trkpt lat="45.987891" lon="7.010149">
        <time>1970-01-01T00:00:00+00:00</time>
        <ele>3218.0</ele>
      </trkpt>
      <trkpt lat="45.988002" lon="7.01027">
        <time>1970-01-01T00:00:00+00:00</time>
        <ele>3221.0</ele>
      </trkpt>
      <trkpt lat="45.98803" lon="7.010495">
        <time>1970-01-01T00:00:00+00:00</time>
        <ele>3232.0</ele>
      </trkpt>
      <trkpt lat="45.98818" lon="7.010647">
        <time>1970-01-01T00:00:00+00:00</time>
        <ele>3236.0</ele>
      </trkpt>
      <trkpt lat="45.988384" lon="7.01073">
        <time>1970-01-01T00:00:00+00:00</time>
        <ele>3240.0</ele>
      </trkpt>
      <trkpt lat="45.988362" lon="7.010884">
        <time>1970-01-01T00:00:00+00:00</time>
        <ele>3246.0</ele>
      </trkpt>
      <trkpt lat="45.988265" lon="7.011012">
        <time>1970-01-01T00:00:00+00:00</time>
        <ele>3254.0</ele>
      </trkpt>
      <trkpt lat="45.988361" lon="7.011311">
        <time>1970-01-01T00:00:00+00:00</time>
        <ele>3272.0</ele>
      </trkpt>
      <trkpt lat="45.988492" lon="7.011489">
        <time>1970-01-01T00:00:00+00:00</time>
        <ele>3282.0</ele>
      </trkpt>
      <trkpt lat="45.988521" lon="7.011449">
        <time>1970-01-01T00:00:00+00:00</time>
        <ele>3280.0</ele>
      </trkpt>
      <trkpt lat="45.988506" lon="7.01166">
        <time>1970-01-01T00:00:00+00:00</time>
        <ele>3286.0</ele>
      </trkpt>
      <trkpt lat="45.988546" lon="7.011698">
        <time>1970-01-01T00:00:00+00:00</time>
        <ele>3287.0</ele>
      </trkpt>
      <trkpt lat="45.988479" lon="7.011919">
        <time>1970-01-01T00:00:00+00:00</time>
        <ele>3287.0</ele>
      </trkpt>
      <trkpt lat="45.988531" lon="7.011884">
        <time>1970-01-01T00:00:00+00:00</time>
        <ele>3285.0</ele>
      </trkpt>
      <trkpt lat="45.988842" lon="7.012172">
        <time>1970-01-01T00:00:00+00:00</time>
        <ele>3288.0</ele>
      </trkpt>
      <trkpt lat="45.989493" lon="7.012499">
        <time>1970-01-01T00:00:00+00:00</time>
        <ele>3297.0</ele>
      </trkpt>
      <trkpt lat="45.989751" lon="7.012483">
        <time>1970-01-01T00:00:00+00:00</time>
        <ele>3305.0</ele>
      </trkpt>
      <trkpt lat="45.989827" lon="7.012364">
        <time>1970-01-01T00:00:00+00:00</time>
        <ele>3310.0</ele>
      </trkpt>
      <trkpt lat="45.990276" lon="7.01227">
        <time>1970-01-01T00:00:00+00:00</time>
        <ele>3330.0</ele>
      </trkpt>
      <trkpt lat="45.990649" lon="7.012373">
        <time>1970-01-01T00:00:00+00:00</time>
        <ele>3349.0</ele>
      </trkpt>
      <trkpt lat="45.990626" lon="7.012295">
        <time>1970-01-01T00:00:00+00:00</time>
        <ele>3351.0</ele>
      </trkpt>
      <trkpt lat="45.990636" lon="7.012399">
        <time>1970-01-01T00:00:00+00:00</time>
        <ele>3347.0</ele>
      </trkpt>
      <trkpt lat="45.990546" lon="7.012253">
        <time>1970-01-01T00:00:00+00:00</time>
        <ele>3347.0</ele>
      </trkpt>
      <trkpt lat="45.990622" lon="7.012244">
        <time>1970-01-01T00:00:00+00:00</time>
        <ele>3352.0</ele>
      </trkpt>
      <trkpt lat="45.990559" lon="7.012097">
        <time>1970-01-01T00:00:00+00:00</time>
        <ele>3352.0</ele>
      </trkpt>
      <trkpt lat="45.990662" lon="7.012057">
        <time>1970-01-01T00:00:00+00:00</time>
        <ele>3358.0</ele>
      </trkpt>
      <trkpt lat="45.990613" lon="7.012015">
        <time>1970-01-01T00:00:00+00:00</time>
        <ele>3356.0</ele>
      </trkpt>
      <trkpt lat="45.990685" lon="7.012073">
        <time>1970-01-01T00:00:00+00:00</time>
        <ele>3359.0</ele>
      </trkpt>
      <trkpt lat="45.990644" lon="7.012059">
        <time>1970-01-01T00:00:00+00:00</time>
        <ele>3357.0</ele>
      </trkpt>
      <trkpt lat="45.990685" lon="7.011981">
        <time>1970-01-01T00:00:00+00:00</time>
        <ele>3360.0</ele>
      </trkpt>
      <trkpt lat="45.990573" lon="7.012094">
        <time>1970-01-01T00:00:00+00:00</time>
        <ele>3352.0</ele>
      </trkpt>
      <trkpt lat="45.990685" lon="7.012027">
        <time>1970-01-01T00:00:00+00:00</time>
        <ele>3360.0</ele>
      </trkpt>
      <trkpt lat="45.990646" lon="7.012009">
        <time>1970-01-01T00:00:00+00:00</time>
        <ele>3358.0</ele>
      </trkpt>
      <trkpt lat="45.990698" lon="7.012058">
        <time>1970-01-01T00:00:00+00:00</time>
        <ele>3360.0</ele>
      </trkpt>
      <trkpt lat="45.990609" lon="7.011974">
        <time>1970-01-01T00:00:00+00:00</time>
        <ele>3356.0</ele>
      </trkpt>
      <trkpt lat="45.990709" lon="7.01204">
        <time>1970-01-01T00:00:00+00:00</time>
        <ele>3361.0</ele>
      </trkpt>
      <trkpt lat="45.990525" lon="7.011933">
        <time>1970-01-01T00:00:00+00:00</time>
        <ele>3351.0</ele>
      </trkpt>
      <trkpt lat="45.990706" lon="7.01206">
        <time>1970-01-01T00:00:00+00:00</time>
        <ele>3361.0</ele>
      </trkpt>
      <trkpt lat="45.990651" lon="7.012024">
        <time>1970-01-01T00:00:00+00:00</time>
        <ele>3358.0</ele>
      </trkpt>
      <trkpt lat="45.990818" lon="7.011729">
        <time>1970-01-01T00:00:00+00:00</time>
        <ele>3354.0</ele>
      </trkpt>
      <trkpt lat="45.990684" lon="7.011589">
        <time>1970-01-01T00:00:00+00:00</time>
        <ele>3341.0</ele>
      </trkpt>
      <trkpt lat="45.990579" lon="7.011747">
        <time>1970-01-01T00:00:00+00:00</time>
        <ele>3351.0</ele>
      </trkpt>
      <trkpt lat="45.990671" lon="7.012123">
        <time>1970-01-01T00:00:00+00:00</time>
        <ele>3357.0</ele>
      </trkpt>
      <trkpt lat="45.990612" lon="7.011939">
        <time>1970-01-01T00:00:00+00:00</time>
        <ele>3355.0</ele>
      </trkpt>
      <trkpt lat="45.990692" lon="7.012103">
        <time>1970-01-01T00:00:00+00:00</time>
        <ele>3359.0</ele>
      </trkpt>
      <trkpt lat="45.99086" lon="7.011903">
        <time>1970-01-01T00:00:00+00:00</time>
        <ele>3363.0</ele>
      </trkpt>
      <trkpt lat="45.990871" lon="7.012014">
        <time>1970-01-01T00:00:00+00:00</time>
        <ele>3369.0</ele>
      </trkpt>
      <trkpt lat="45.990748" lon="7.012356">
        <time>1970-01-01T00:00:00+00:00</time>
        <ele>3357.0</ele>
      </trkpt>
      <trkpt lat="45.990759" lon="7.012221">
        <time>1970-01-01T00:00:00+00:00</time>
        <ele>3361.0</ele>
      </trkpt>
      <trkpt lat="45.990705" lon="7.012232">
        <time>1970-01-01T00:00:00+00:00</time>
        <ele>3357.0</ele>
      </trkpt>
      <trkpt lat="45.990476" lon="7.011898">
        <time>1970-01-01T00:00:00+00:00</time>
        <ele>3349.0</ele>
      </trkpt>
      <trkpt lat="45.990714" lon="7.012092">
        <time>1970-01-01T00:00:00+00:00</time>
        <ele>3360.0</ele>
      </trkpt>
      <trkpt lat="45.990643" lon="7.012072">
        <time>1970-01-01T00:00:00+00:00</time>
        <ele>3357.0</ele>
      </trkpt>
      <trkpt lat="45.990698" lon="7.012">
        <time>1970-01-01T00:00:00+00:00</time>
        <ele>3361.0</ele>
      </trkpt>
      <trkpt lat="45.990767" lon="7.0121">
        <time>1970-01-01T00:00:00+00:00</time>
        <ele>3363.0</ele>
      </trkpt>
      <trkpt lat="45.990736" lon="7.012155">
        <time>1970-01-01T00:00:00+00:00</time>
        <ele>3361.0</ele>
      </trkpt>
      <trkpt lat="45.990842" lon="7.012189">
        <time>1970-01-01T00:00:00+00:00</time>
        <ele>3366.0</ele>
      </trkpt>
      <trkpt lat="45.990871" lon="7.01213">
        <time>1970-01-01T00:00:00+00:00</time>
        <ele>3368.0</ele>
      </trkpt>
      <trkpt lat="45.990848" lon="7.01219">
        <time>1970-01-01T00:00:00+00:00</time>
        <ele>3367.0</ele>
      </trkpt>
      <trkpt lat="45.990949" lon="7.012237">
        <time>1970-01-01T00:00:00+00:00</time>
        <ele>3372.0</ele>
      </trkpt>
      <trkpt lat="45.990931" lon="7.012124">
        <time>1970-01-01T00:00:00+00:00</time>
        <ele>3371.0</ele>
      </trkpt>
      <trkpt lat="45.990907" lon="7.012193">
        <time>1970-01-01T00:00:00+00:00</time>
        <ele>3370.0</ele>
      </trkpt>
      <trkpt lat="45.991038" lon="7.012239">
        <time>1970-01-01T00:00:00+00:00</time>
        <ele>3377.0</ele>
      </trkpt>
      <trkpt lat="45.991042" lon="7.012353">
        <time>1970-01-01T00:00:00+00:00</time>
        <ele>3376.0</ele>
      </trkpt>
      <trkpt lat="45.991098" lon="7.012344">
        <time>1970-01-01T00:00:00+00:00</time>
        <ele>3380.0</ele>
      </trkpt>
      <trkpt lat="45.99127" lon="7.012074">
        <time>1970-01-01T00:00:00+00:00</time>
        <ele>3382.0</ele>
      </trkpt>
      <trkpt lat="45.991138" lon="7.012267">
        <time>1970-01-01T00:00:00+00:00</time>
        <ele>3383.0</ele>
      </trkpt>
      <trkpt lat="45.991211" lon="7.012194">
        <time>1970-01-01T00:00:00+00:00</time>
        <ele>3384.0</ele>
      </trkpt>
      <trkpt lat="45.991174" lon="7.012173">
        <time>1970-01-01T00:00:00+00:00</time>
        <ele>3383.0</ele>
      </trkpt>
      <trkpt lat="45.991157" lon="7.012298">
        <time>1970-01-01T00:00:00+00:00</time>
        <ele>3384.0</ele>
      </trkpt>
      <trkpt lat="45.991174" lon="7.01225">
        <time>1970-01-01T00:00:00+00:00</time>
        <ele>3385.0</ele>
      </trkpt>
      <trkpt lat="45.991179" lon="7.012515">
        <time>1970-01-01T00:00:00+00:00</time>
        <ele>3382.0</ele>
      </trkpt>
      <trkpt lat="45.991206" lon="7.012248">
        <time>1970-01-01T00:00:00+00:00</time>
        <ele>3386.0</ele>
      </trkpt>
      <trkpt lat="45.991164" lon="7.012368">
        <time>1970-01-01T00:00:00+00:00</time>
        <ele>3383.0</ele>
      </trkpt>
      <trkpt lat="45.991202" lon="7.012417">
        <time>1970-01-01T00:00:00+00:00</time>
        <ele>3385.0</ele>
      </trkpt>
      <trkpt lat="45.991177" lon="7.012267">
        <time>1970-01-01T00:00:00+00:00</time>
        <ele>3385.0</ele>
      </trkpt>
      <trkpt lat="45.991233" lon="7.012378">
        <time>1970-01-01T00:00:00+00:00</time>
        <ele>3387.0</ele>
      </trkpt>
      <trkpt lat="45.991249" lon="7.012331">
        <time>1970-01-01T00:00:00+00:00</time>
        <ele>3388.0</ele>
      </trkpt>
      <trkpt lat="45.991238" lon="7.012517">
        <time>1970-01-01T00:00:00+00:00</time>
        <ele>3386.0</ele>
      </trkpt>
      <trkpt lat="45.991319" lon="7.012387">
        <time>1970-01-01T00:00:00+00:00</time>
        <ele>3391.0</ele>
      </trkpt>
      <trkpt lat="45.991353" lon="7.012434">
        <time>1970-01-01T00:00:00+00:00</time>
        <ele>3393.0</ele>
      </trkpt>
      <trkpt lat="45.991339" lon="7.01233">
        <time>1970-01-01T00:00:00+00:00</time>
        <ele>3392.0</ele>
      </trkpt>
      <trkpt lat="45.991397" lon="7.012487">
        <time>1970-01-01T00:00:00+00:00</time>
        <ele>3395.0</ele>
      </trkpt>
      <trkpt lat="45.991305" lon="7.012454">
        <time>1970-01-01T00:00:00+00:00</time>
        <ele>3390.0</ele>
      </trkpt>
      <trkpt lat="45.991348" lon="7.012326">
        <time>1970-01-01T00:00:00+00:00</time>
        <ele>3393.0</ele>
      </trkpt>
      <trkpt lat="45.991464" lon="7.012383">
        <time>1970-01-01T00:00:00+00:00</time>
        <ele>3396.0</ele>
      </trkpt>
      <trkpt lat="45.991443" lon="7.012423">
        <time>1970-01-01T00:00:00+00:00</time>
        <ele>3396.0</ele>
      </trkpt>
      <trkpt lat="45.991508" lon="7.012394">
        <time>1970-01-01T00:00:00+00:00</time>
        <ele>3398.0</ele>
      </trkpt>
      <trkpt lat="45.991475" lon="7.012453">
        <time>1970-01-01T00:00:00+00:00</time>
        <ele>3397.0</ele>
      </trkpt>
      <trkpt lat="45.991455" lon="7.012418">
        <time>1970-01-01T00:00:00+00:00</time>
        <ele>3396.0</ele>
      </trkpt>
      <trkpt lat="45.991576" lon="7.012427">
        <time>1970-01-01T00:00:00+00:00</time>
        <ele>3398.0</ele>
      </trkpt>
      <trkpt lat="45.991519" lon="7.012433">
        <time>1970-01-01T00:00:00+00:00</time>
        <ele>3398.0</ele>
      </trkpt>
      <trkpt lat="45.991636" lon="7.012564">
        <time>1970-01-01T00:00:00+00:00</time>
        <ele>3400.0</ele>
      </trkpt>
      <trkpt lat="45.991665" lon="7.012534">
        <time>1970-01-01T00:00:00+00:00</time>
        <ele>3400.0</ele>
      </trkpt>
      <trkpt lat="45.991638" lon="7.012578">
        <time>1970-01-01T00:00:00+00:00</time>
        <ele>3400.0</ele>
      </trkpt>
      <trkpt lat="45.991664" lon="7.012539">
        <time>1970-01-01T00:00:00+00:00</time>
        <ele>3400.0</ele>
      </trkpt>
      <trkpt lat="45.991589" lon="7.012533">
        <time>1970-01-01T00:00:00+00:00</time>
        <ele>3400.0</ele>
      </trkpt>
      <trkpt lat="45.991692" lon="7.012545">
        <time>1970-01-01T00:00:00+00:00</time>
        <ele>3400.0</ele>
      </trkpt>
      <trkpt lat="45.991666" lon="7.012503">
        <time>1970-01-01T00:00:00+00:00</time>
        <ele>3399.0</ele>
      </trkpt>
      <trkpt lat="45.991678" lon="7.012589">
        <time>1970-01-01T00:00:00+00:00</time>
        <ele>3399.0</ele>
      </trkpt>
      <trkpt lat="45.99188" lon="7.012708">
        <time>1970-01-01T00:00:00+00:00</time>
        <ele>3393.0</ele>
      </trkpt>
      <trkpt lat="45.991823" lon="7.012702">
        <time>1970-01-01T00:00:00+00:00</time>
        <ele>3394.0</ele>
      </trkpt>
      <trkpt lat="45.991988" lon="7.01287">
        <time>1970-01-01T00:00:00+00:00</time>
        <ele>3385.0</ele>
      </trkpt>
      <trkpt lat="45.9919" lon="7.01286">
        <time>1970-01-01T00:00:00+00:00</time>
        <ele>3388.0</ele>
      </trkpt>
      <trkpt lat="45.992468" lon="7.01275">
        <time>1970-01-01T00:00:00+00:00</time>
        <ele>3381.0</ele>
      </trkpt>
      <trkpt lat="45.992673" lon="7.012823">
        <time>1970-01-01T00:00:00+00:00</time>
        <ele>3380.0</ele>
      </trkpt>
      <trkpt lat="45.991856" lon="7.014032">
        <time>1970-01-01T00:00:00+00:00</time>
        <ele>3343.0</ele>
      </trkpt>
      <trkpt lat="45.991628" lon="7.014147">
        <time>1970-01-01T00:00:00+00:00</time>
        <ele>3331.0</ele>
      </trkpt>
      <trkpt lat="45.991349" lon="7.014133">
        <time>1970-01-01T00:00:00+00:00</time>
        <ele>3318.0</ele>
      </trkpt>
      <trkpt lat="45.990847" lon="7.013589">
        <time>1970-01-01T00:00:00+00:00</time>
        <ele>3321.0</ele>
      </trkpt>
      <trkpt lat="45.98931" lon="7.012366">
        <time>1970-01-01T00:00:00+00:00</time>
        <ele>3294.0</ele>
      </trkpt>
      <trkpt lat="45.988666" lon="7.01205">
        <time>1970-01-01T00:00:00+00:00</time>
        <ele>3284.0</ele>
      </trkpt>
      <trkpt lat="45.988499" lon="7.011867">
        <time>1970-01-01T00:00:00+00:00</time>
        <ele>3287.0</ele>
      </trkpt>
      <trkpt lat="45.98853" lon="7.011899">
        <time>1970-01-01T00:00:00+00:00</time>
        <ele>3285.0</ele>
      </trkpt>
      <trkpt lat="45.988537" lon="7.011551">
        <time>1970-01-01T00:00:00+00:00</time>
        <ele>3283.0</ele>
      </trkpt>
      <trkpt lat="45.988342" lon="7.011234">
        <time>1970-01-01T00:00:00+00:00</time>
        <ele>3267.0</ele>
      </trkpt>
      <trkpt lat="45.988184" lon="7.010605">
        <time>1970-01-01T00:00:00+00:00</time>
        <ele>3234.0</ele>
      </trkpt>
      <trkpt lat="45.987745" lon="7.009665">
        <time>1970-01-01T00:00:00+00:00</time>
        <ele>3198.0</ele>
      </trkpt>
      <trkpt lat="45.987665" lon="7.009186">
        <time>1970-01-01T00:00:00+00:00</time>
        <ele>3178.0</ele>
      </trkpt>
      <trkpt lat="45.987687" lon="7.007193">
        <time>1970-01-01T00:00:00+00:00</time>
        <ele>3117.0</ele>
      </trkpt>
      <trkpt lat="45.987765" lon="7.006662">
        <time>1970-01-01T00:00:00+00:00</time>
        <ele>3110.0</ele>
      </trkpt>
      <trkpt lat="45.987599" lon="7.005859">
        <time>1970-01-01T00:00:00+00:00</time>
        <ele>3102.0</ele>
      </trkpt>
      <trkpt lat="45.987588" lon="7.005451">
        <time>1970-01-01T00:00:00+00:00</time>
        <ele>3101.0</ele>
      </trkpt>
      <trkpt lat="45.987674" lon="7.005006">
        <time>1970-01-01T00:00:00+00:00</time>
        <ele>3101.0</ele>
      </trkpt>
      <trkpt lat="45.98787" lon="7.004618">
        <time>1970-01-01T00:00:00+00:00</time>
        <ele>3101.0</ele>
      </trkpt>
      <trkpt lat="45.988668" lon="7.003568">
        <time>1970-01-01T00:00:00+00:00</time>
        <ele>3097.0</ele>
      </trkpt>
      <trkpt lat="45.989072" lon="7.003295">
        <time>1970-01-01T00:00:00+00:00</time>
        <ele>3094.0</ele>
      </trkpt>
      <trkpt lat="45.989204" lon="7.003348">
        <time>1970-01-01T00:00:00+00:00</time>
        <ele>3094.0</ele>
      </trkpt>
      <trkpt lat="45.989619" lon="7.003279">
        <time>1970-01-01T00:00:00+00:00</time>
        <ele>3081.0</ele>
      </trkpt>
      <trkpt lat="45.989903" lon="7.003064">
        <time>1970-01-01T00:00:00+00:00</time>
        <ele>3067.0</ele>
      </trkpt>
      <trkpt lat="45.990468" lon="7.002471">
        <time>1970-01-01T00:00:00+00:00</time>
        <ele>3044.0</ele>
      </trkpt>
      <trkpt lat="45.990775" lon="7.002236">
        <time>1970-01-01T00:00:00+00:00</time>
        <ele>3036.0</ele>
      </trkpt>
      <trkpt lat="45.99161" lon="7.001303">
        <time>1970-01-01T00:00:00+00:00</time>
        <ele>3005.0</ele>
      </trkpt>
      <trkpt lat="45.992879" lon="7.000174">
        <time>1970-01-01T00:00:00+00:00</time>
        <ele>2952.0</ele>
      </trkpt>
      <trkpt lat="45.993598" lon="6.998913">
        <time>1970-01-01T00:00:00+00:00</time>
        <ele>2931.0</ele>
      </trkpt>
      <trkpt lat="45.993887" lon="6.997514">
        <time>1970-01-01T00:00:00+00:00</time>
        <ele>2907.0</ele>
      </trkpt>
      <trkpt lat="45.994122" lon="6.997249">
        <time>1970-01-01T00:00:00+00:00</time>
        <ele>2903.0</ele>
      </trkpt>
      <trkpt lat="45.994108" lon="6.997197">
        <time>1970-01-01T00:00:00+00:00</time>
        <ele>2901.0</ele>
      </trkpt>
      <trkpt lat="45.994661" lon="6.997461">
        <time>1970-01-01T00:00:00+00:00</time>
        <ele>2907.0</ele>
      </trkpt>
      <trkpt lat="45.994852" lon="6.997416">
        <time>1970-01-01T00:00:00+00:00</time>
        <ele>2902.0</ele>
      </trkpt>
      <trkpt lat="45.994943" lon="6.997263">
        <time>1970-01-01T00:00:00+00:00</time>
        <ele>2897.0</ele>
      </trkpt>
      <trkpt lat="45.995238" lon="6.997134">
        <time>1970-01-01T00:00:00+00:00</time>
        <ele>2889.0</ele>
      </trkpt>
      <trkpt lat="45.99531" lon="6.997012">
        <time>1970-01-01T00:00:00+00:00</time>
        <ele>2883.0</ele>
      </trkpt>
      <trkpt lat="45.995613" lon="6.997001">
        <time>1970-01-01T00:00:00+00:00</time>
        <ele>2879.0</ele>
      </trkpt>
      <trkpt lat="45.995834" lon="6.996864">
        <time>1970-01-01T00:00:00+00:00</time>
        <ele>2872.0</ele>
      </trkpt>
      <trkpt lat="45.99606" lon="6.996475">
        <time>1970-01-01T00:00:00+00:00</time>
        <ele>2857.0</ele>
      </trkpt>
      <trkpt lat="45.996469" lon="6.995303">
        <time>1970-01-01T00:00:00+00:00</time>
        <ele>2829.0</ele>
      </trkpt>
      <trkpt lat="45.996534" lon="6.994857">
        <time>1970-01-01T00:00:00+00:00</time>
        <ele>2824.0</ele>
      </trkpt>
      <trkpt lat="45.996782" lon="6.994876">
        <time>1970-01-01T00:00:00+00:00</time>
        <ele>2826.0</ele>
      </trkpt>
      <trkpt lat="45.99682" lon="6.994972">
        <time>1970-01-01T00:00:00+00:00</time>
        <ele>2828.0</ele>
      </trkpt>
      <trkpt lat="45.996788" lon="6.994905">
        <time>1970-01-01T00:00:00+00:00</time>
        <ele>2827.0</ele>
      </trkpt>
      <trkpt lat="45.996828" lon="6.994914">
        <time>1970-01-01T00:00:00+00:00</time>
        <ele>2827.0</ele>
      </trkpt>
      <trkpt lat="45.996771" lon="6.994913">
        <time>1970-01-01T00:00:00+00:00</time>
        <ele>2827.0</ele>
      </trkpt>
      <trkpt lat="45.996948" lon="6.994577">
        <time>1970-01-01T00:00:00+00:00</time>
        <ele>2825.0</ele>
      </trkpt>
      <trkpt lat="45.996954" lon="6.993825">
        <time>1970-01-01T00:00:00+00:00</time>
        <ele>2818.0</ele>
      </trkpt>
      <trkpt lat="45.996854" lon="6.993433">
        <time>1970-01-01T00:00:00+00:00</time>
        <ele>2812.0</ele>
      </trkpt>
      <trkpt lat="45.996438" lon="6.992355">
        <time>1970-01-01T00:00:00+00:00</time>
        <ele>2799.0</ele>
      </trkpt>
      <trkpt lat="45.99617" lon="6.991971">
        <time>1970-01-01T00:00:00+00:00</time>
        <ele>2790.0</ele>
      </trkpt>
      <trkpt lat="45.995718" lon="6.991132">
        <time>1970-01-01T00:00:00+00:00</time>
        <ele>2770.0</ele>
      </trkpt>
      <trkpt lat="45.995678" lon="6.990911">
        <time>1970-01-01T00:00:00+00:00</time>
        <ele>2768.0</ele>
      </trkpt>
      <trkpt lat="45.995703" lon="6.989821">
        <time>1970-01-01T00:00:00+00:00</time>
        <ele>2757.0</ele>
      </trkpt>
      <trkpt lat="45.995906" lon="6.989244">
        <time>1970-01-01T00:00:00+00:00</time>
        <ele>2755.0</ele>
      </trkpt>
      <trkpt lat="45.995866" lon="6.989117">
        <time>1970-01-01T00:00:00+00:00</time>
        <ele>2751.0</ele>
      </trkpt>
      <trkpt lat="45.99594" lon="6.988587">
        <time>1970-01-01T00:00:00+00:00</time>
        <ele>2738.0</ele>
      </trkpt>
      <trkpt lat="45.995918" lon="6.988338">
        <time>1970-01-01T00:00:00+00:00</time>
        <ele>2728.0</ele>
      </trkpt>
      <trkpt lat="45.996139" lon="6.987714">
        <time>1970-01-01T00:00:00+00:00</time>
        <ele>2718.0</ele>
      </trkpt>
      <trkpt lat="45.996171" lon="6.987474">
        <time>1970-01-01T00:00:00+00:00</time>
        <ele>2712.0</ele>
      </trkpt>
      <trkpt lat="45.996362" lon="6.987223">
        <time>1970-01-01T00:00:00+00:00</time>
        <ele>2714.0</ele>
      </trkpt>
      <trkpt lat="45.996392" lon="6.987075">
        <time>1970-01-01T00:00:00+00:00</time>
        <ele>2709.0</ele>
      </trkpt>
      <trkpt lat="45.996613" lon="6.986682">
        <time>1970-01-01T00:00:00+00:00</time>
        <ele>2707.0</ele>
      </trkpt>
      <trkpt lat="45.996888" lon="6.986602">
        <time>1970-01-01T00:00:00+00:00</time>
        <ele>2712.0</ele>
      </trkpt>
      <trkpt lat="45.996839" lon="6.986489">
        <time>1970-01-01T00:00:00+00:00</time>
        <ele>2708.0</ele>
      </trkpt>
      <trkpt lat="45.996808" lon="6.986537">
        <time>1970-01-01T00:00:00+00:00</time>
        <ele>2708.0</ele>
      </trkpt>
      <trkpt lat="45.996868" lon="6.986484">
        <time>1970-01-01T00:00:00+00:00</time>
        <ele>2708.0</ele>
      </trkpt>
      <trkpt lat="45.996852" lon="6.986533">
        <time>1970-01-01T00:00:00+00:00</time>
        <ele>2709.0</ele>
      </trkpt>
      <trkpt lat="45.996794" lon="6.986468">
        <time>1970-01-01T00:00:00+00:00</time>
        <ele>2706.0</ele>
      </trkpt>
      <trkpt lat="45.996879" lon="6.986542">
        <time>1970-01-01T00:00:00+00:00</time>
        <ele>2710.0</ele>
      </trkpt>
      <trkpt lat="45.996839" lon="6.986588">
        <time>1970-01-01T00:00:00+00:00</time>
        <ele>2710.0</ele>
      </trkpt>
      <trkpt lat="45.996813" lon="6.986499">
        <time>1970-01-01T00:00:00+00:00</time>
        <ele>2708.0</ele>
      </trkpt>
      <trkpt lat="45.99679" lon="6.986547">
        <time>1970-01-01T00:00:00+00:00</time>
        <ele>2708.0</ele>
      </trkpt>
      <trkpt lat="45.996766" lon="6.986503">
        <time>1970-01-01T00:00:00+00:00</time>
        <ele>2707.0</ele>
      </trkpt>
      <trkpt lat="45.996808" lon="6.986517">
        <time>1970-01-01T00:00:00+00:00</time>
        <ele>2708.0</ele>
      </trkpt>
      <trkpt lat="45.996796" lon="6.986579">
        <time>1970-01-01T00:00:00+00:00</time>
        <ele>2709.0</ele>
      </trkpt>
      <trkpt lat="45.99673" lon="6.986563">
        <time>1970-01-01T00:00:00+00:00</time>
        <ele>2707.0</ele>
      </trkpt>
      <trkpt lat="45.996879" lon="6.986518">
        <time>1970-01-01T00:00:00+00:00</time>
        <ele>2709.0</ele>
      </trkpt>
      <trkpt lat="45.996833" lon="6.986506">
        <time>1970-01-01T00:00:00+00:00</time>
        <ele>2708.0</ele>
      </trkpt>
      <trkpt lat="45.996884" lon="6.986449">
        <time>1970-01-01T00:00:00+00:00</time>
        <ele>2708.0</ele>
      </trkpt>
      <trkpt lat="45.996782" lon="6.986597">
        <time>1970-01-01T00:00:00+00:00</time>
        <ele>2710.0</ele>
      </trkpt>
      <trkpt lat="45.996837" lon="6.986505">
        <time>1970-01-01T00:00:00+00:00</time>
        <ele>2708.0</ele>
      </trkpt>
      <trkpt lat="45.996791" lon="6.986575">
        <time>1970-01-01T00:00:00+00:00</time>
        <ele>2709.0</ele>
      </trkpt>
      <trkpt lat="45.996846" lon="6.98656">
        <time>1970-01-01T00:00:00+00:00</time>
        <ele>2710.0</ele>
      </trkpt>
      <trkpt lat="45.996716" lon="6.986609">
        <time>1970-01-01T00:00:00+00:00</time>
        <ele>2708.0</ele>
      </trkpt>
      <trkpt lat="45.996648" lon="6.986574">
        <time>1970-01-01T00:00:00+00:00</time>
        <ele>2704.0</ele>
      </trkpt>
      <trkpt lat="45.996738" lon="6.986467">
        <time>1970-01-01T00:00:00+00:00</time>
        <ele>2704.0</ele>
      </trkpt>
      <trkpt lat="45.99731" lon="6.986397">
        <time>1970-01-01T00:00:00+00:00</time>
        <ele>2700.0</ele>
      </trkpt>
      <trkpt lat="45.997006" lon="6.985955">
        <time>1970-01-01T00:00:00+00:00</time>
        <ele>2679.0</ele>
      </trkpt>
      <trkpt lat="45.997019" lon="6.985816">
        <time>1970-01-01T00:00:00+00:00</time>
        <ele>2672.0</ele>
      </trkpt>
      <trkpt lat="45.997293" lon="6.985436">
        <time>1970-01-01T00:00:00+00:00</time>
        <ele>2657.0</ele>
      </trkpt>
      <trkpt lat="45.997569" lon="6.985231">
        <time>1970-01-01T00:00:00+00:00</time>
        <ele>2644.0</ele>
      </trkpt>
      <trkpt lat="45.997941" lon="6.984587">
        <time>1970-01-01T00:00:00+00:00</time>
        <ele>2617.0</ele>
      </trkpt>
      <trkpt lat="45.999037" lon="6.981935">
        <time>1970-01-01T00:00:00+00:00</time>
        <ele>2540.0</ele>
      </trkpt>
      <trkpt lat="45.999724" lon="6.980711">
        <time>1970-01-01T00:00:00+00:00</time>
        <ele>2497.0</ele>
      </trkpt>
      <trkpt lat="45.99993" lon="6.980755">
        <time>1970-01-01T00:00:00+00:00</time>
        <ele>2497.0</ele>
      </trkpt>
      <trkpt lat="46.000714" lon="6.980333">
        <time>1970-01-01T00:00:00+00:00</time>
        <ele>2495.0</ele>
      </trkpt>
      <trkpt lat="46.00158" lon="6.980175">
        <time>1970-01-01T00:00:00+00:00</time>
        <ele>2492.0</ele>
      </trkpt>
      <trkpt lat="46.001853" lon="6.980048">
        <time>1970-01-01T00:00:00+00:00</time>
        <ele>2492.0</ele>
      </trkpt>
      <trkpt lat="46.002042" lon="6.979684">
        <time>1970-01-01T00:00:00+00:00</time>
        <ele>2483.0</ele>
      </trkpt>
      <trkpt lat="46.002964" lon="6.978431">
        <time>1970-01-01T00:00:00+00:00</time>
        <ele>2473.0</ele>
      </trkpt>
      <trkpt lat="46.003058" lon="6.97801">
        <time>1970-01-01T00:00:00+00:00</time>
        <ele>2454.0</ele>
      </trkpt>
      <trkpt lat="46.003295" lon="6.977597">
        <time>1970-01-01T00:00:00+00:00</time>
        <ele>2452.0</ele>
      </trkpt>
      <trkpt lat="46.003632" lon="6.976688">
        <time>1970-01-01T00:00:00+00:00</time>
        <ele>2437.0</ele>
      </trkpt>
      <trkpt lat="46.003951" lon="6.975558">
        <time>1970-01-01T00:00:00+00:00</time>
        <ele>2428.0</ele>
      </trkpt>
      <trkpt lat="46.003904" lon="6.975137">
        <time>1970-01-01T00:00:00+00:00</time>
        <ele>2417.0</ele>
      </trkpt>
      <trkpt lat="46.003953" lon="6.974756">
        <time>1970-01-01T00:00:00+00:00</time>
        <ele>2422.0</ele>
      </trkpt>
      <trkpt lat="46.004129" lon="6.974777">
        <time>1970-01-01T00:00:00+00:00</time>
        <ele>2442.0</ele>
      </trkpt>
      <trkpt lat="46.004137" lon="6.974616">
        <time>1970-01-01T00:00:00+00:00</time>
        <ele>2438.0</ele>
      </trkpt>
      <trkpt lat="46.00406" lon="6.974299">
        <time>1970-01-01T00:00:00+00:00</time>
        <ele>2430.0</ele>
      </trkpt>
      <trkpt lat="46.004102" lon="6.973929">
        <time>1970-01-01T00:00:00+00:00</time>
        <ele>2437.0</ele>
      </trkpt>
      <trkpt lat="46.004349" lon="6.973675">
        <time>1970-01-01T00:00:00+00:00</time>
        <ele>2445.0</ele>
      </trkpt>
      <trkpt lat="46.004425" lon="6.973493">
        <time>1970-01-01T00:00:00+00:00</time>
        <ele>2438.0</ele>
      </trkpt>
      <trkpt lat="46.004304" lon="6.973075">
        <time>1970-01-01T00:00:00+00:00</time>
        <ele>2418.0</ele>
      </trkpt>
      <trkpt lat="46.004541" lon="6.972831">
        <time>1970-01-01T00:00:00+00:00</time>
        <ele>2426.0</ele>
      </trkpt>
      <trkpt lat="46.004718" lon="6.972403">
        <time>1970-01-01T00:00:00+00:00</time>
        <ele>2416.0</ele>
      </trkpt>
      <trkpt lat="46.004826" lon="6.971958">
        <time>1970-01-01T00:00:00+00:00</time>
        <ele>2407.0</ele>
      </trkpt>
      <trkpt lat="46.00482" lon="6.971212">
        <time>1970-01-01T00:00:00+00:00</time>
        <ele>2390.0</ele>
      </trkpt>
      <trkpt lat="46.004955" lon="6.970944">
        <time>1970-01-01T00:00:00+00:00</time>
        <ele>2391.0</ele>
      </trkpt>
      <trkpt lat="46.004768" lon="6.970973">
        <time>1970-01-01T00:00:00+00:00</time>
        <ele>2379.0</ele>
      </trkpt>
      <trkpt lat="46.004822" lon="6.970787">
        <time>1970-01-01T00:00:00+00:00</time>
        <ele>2377.0</ele>
      </trkpt>
      <trkpt lat="46.004973" lon="6.97057">
        <time>1970-01-01T00:00:00+00:00</time>
        <ele>2375.0</ele>
      </trkpt>
      <trkpt lat="46.004849" lon="6.970471">
        <time>1970-01-01T00:00:00+00:00</time>
        <ele>2364.0</ele>
      </trkpt>
      <trkpt lat="46.005264" lon="6.969383">
        <time>1970-01-01T00:00:00+00:00</time>
        <ele>2338.0</ele>
      </trkpt>
      <trkpt lat="46.005492" lon="6.969141">
        <time>1970-01-01T00:00:00+00:00</time>
        <ele>2336.0</ele>
      </trkpt>
      <trkpt lat="46.005763" lon="6.969167">
        <time>1970-01-01T00:00:00+00:00</time>
        <ele>2337.0</ele>
      </trkpt>
      <trkpt lat="46.006047" lon="6.969631">
        <time>1970-01-01T00:00:00+00:00</time>
        <ele>2343.0</ele>
      </trkpt>
      <trkpt lat="46.006436" lon="6.969732">
        <time>1970-01-01T00:00:00+00:00</time>
        <ele>2329.0</ele>
      </trkpt>
      <trkpt lat="46.007675" lon="6.969665">
        <time>1970-01-01T00:00:00+00:00</time>
        <ele>2305.0</ele>
      </trkpt>
      <trkpt lat="46.008003" lon="6.969842">
        <time>1970-01-01T00:00:00+00:00</time>
        <ele>2300.0</ele>
      </trkpt>
      <trkpt lat="46.008586" lon="6.970413">
        <time>1970-01-01T00:00:00+00:00</time>
        <ele>2289.0</ele>
      </trkpt>
      <trkpt lat="46.009703" lon="6.971214">
        <time>1970-01-01T00:00:00+00:00</time>
        <ele>2277.0</ele>
      </trkpt>
      <trkpt lat="46.010493" lon="6.971543">
        <time>1970-01-01T00:00:00+00:00</time>
        <ele>2279.0</ele>
      </trkpt>
      <trkpt lat="46.010863" lon="6.971887">
        <time>1970-01-01T00:00:00+00:00</time>
        <ele>2278.0</ele>
      </trkpt>
      <trkpt lat="46.012125" lon="6.972176">
        <time>1970-01-01T00:00:00+00:00</time>
        <ele>2271.0</ele>
      </trkpt>
      <trkpt lat="46.012363" lon="6.972158">
        <time>1970-01-01T00:00:00+00:00</time>
        <ele>2268.0</ele>
      </trkpt>
      <trkpt lat="46.012675" lon="6.971899">
        <time>1970-01-01T00:00:00+00:00</time>
        <ele>2262.0</ele>
      </trkpt>
      <trkpt lat="46.013088" lon="6.971777">
        <time>1970-01-01T00:00:00+00:00</time>
        <ele>2265.0</ele>
      </trkpt>
      <trkpt lat="46.014299" lon="6.971865">
        <time>1970-01-01T00:00:00+00:00</time>
        <ele>2267.0</ele>
      </trkpt>
      <trkpt lat="46.014681" lon="6.971784">
        <time>1970-01-01T00:00:00+00:00</time>
        <ele>2267.0</ele>
      </trkpt>
      <trkpt lat="46.015713" lon="6.971183">
        <time>1970-01-01T00:00:00+00:00</time>
        <ele>2266.0</ele>
      </trkpt>
      <trkpt lat="46.016083" lon="6.971258">
        <time>1970-01-01T00:00:00+00:00</time>
        <ele>2268.0</ele>
      </trkpt>
      <trkpt lat="46.016578" lon="6.972219">
        <time>1970-01-01T00:00:00+00:00</time>
        <ele>2264.0</ele>
      </trkpt>
      <trkpt lat="46.017863" lon="6.972596">
        <time>1970-01-01T00:00:00+00:00</time>
        <ele>2250.0</ele>
      </trkpt>
      <trkpt lat="46.018281" lon="6.972466">
        <time>1970-01-01T00:00:00+00:00</time>
        <ele>2241.0</ele>
      </trkpt>
      <trkpt lat="46.018674" lon="6.972212">
        <time>1970-01-01T00:00:00+00:00</time>
        <ele>2231.0</ele>
      </trkpt>
      <trkpt lat="46.019014" lon="6.971836">
        <time>1970-01-01T00:00:00+00:00</time>
        <ele>2218.0</ele>
      </trkpt>
      <trkpt lat="46.019771" lon="6.971826">
        <time>1970-01-01T00:00:00+00:00</time>
        <ele>2210.0</ele>
      </trkpt>
      <trkpt lat="46.020032" lon="6.971382">
        <time>1970-01-01T00:00:00+00:00</time>
        <ele>2203.0</ele>
      </trkpt>
      <trkpt lat="46.020199" lon="6.970844">
        <time>1970-01-01T00:00:00+00:00</time>
        <ele>2195.0</ele>
      </trkpt>
      <trkpt lat="46.020617" lon="6.970694">
        <time>1970-01-01T00:00:00+00:00</time>
        <ele>2195.0</ele>
      </trkpt>
      <trkpt lat="46.020139" lon="6.969628">
        <time>1970-01-01T00:00:00+00:00</time>
        <ele>2175.0</ele>
      </trkpt>
      <trkpt lat="46.0197" lon="6.968475">
        <time>1970-01-01T00:00:00+00:00</time>
        <ele>2147.0</ele>
      </trkpt>
      <trkpt lat="46.018955" lon="6.967017">
        <time>1970-01-01T00:00:00+00:00</time>
        <ele>2110.0</ele>
      </trkpt>
      <trkpt lat="46.015822" lon="6.960239">
        <time>1970-01-01T00:00:00+00:00</time>
        <ele>1961.0</ele>
      </trkpt>
      <trkpt lat="46.014028" lon="6.956178">
        <time>1970-01-01T00:00:00+00:00</time>
        <ele>1856.0</ele>
      </trkpt>
      <trkpt lat="46.014023" lon="6.956032">
        <time>1970-01-01T00:00:00+00:00</time>
        <ele>1854.0</ele>
      </trkpt>
      <trkpt lat="46.013807" lon="6.955672">
        <time>1970-01-01T00:00:00+00:00</time>
        <ele>1847.0</ele>
      </trkpt>
      <trkpt lat="46.0134" lon="6.955383">
        <time>1970-01-01T00:00:00+00:00</time>
        <ele>1839.0</ele>
      </trkpt>
      <trkpt lat="46.004153" lon="6.947402">
        <time>1970-01-01T00:00:00+00:00</time>
        <ele>1488.0</ele>
      </trkpt>
      <trkpt lat="46.004044" lon="6.947444">
        <time>1970-01-01T00:00:00+00:00</time>
        <ele>1488.0</ele>
      </trkpt>
      <trkpt lat="46.003802" lon="6.94714">
        <time>1970-01-01T00:00:00+00:00</time>
        <ele>1483.0</ele>
      </trkpt>
      <trkpt lat="46.003307" lon="6.946314">
        <time>1970-01-01T00:00:00+00:00</time>
        <ele>1474.0</ele>
      </trkpt>
      <trkpt lat="46.002939" lon="6.946489">
        <time>1970-01-01T00:00:00+00:00</time>
        <ele>1473.0</ele>
      </trkpt>
      <trkpt lat="46.00227" lon="6.946952">
        <time>1970-01-01T00:00:00+00:00</time>
        <ele>1475.0</ele>
      </trkpt>
      <trkpt lat="46.00198" lon="6.947307">
        <time>1970-01-01T00:00:00+00:00</time>
        <ele>1475.0</ele>
      </trkpt>
      <trkpt lat="46.001423" lon="6.947705">
        <time>1970-01-01T00:00:00+00:00</time>
        <ele>1475.0</ele>
      </trkpt>
      <trkpt lat="46.001497" lon="6.947723">
        <time>1970-01-01T00:00:00+00:00</time>
        <ele>1475.0</ele>
      </trkpt>
      <trkpt lat="46.001471" lon="6.947682">
        <time>1970-01-01T00:00:00+00:00</time>
        <ele>1475.0</ele>
      </trkpt>
      <trkpt lat="46.001414" lon="6.94782">
        <time>1970-01-01T00:00:00+00:00</time>
        <ele>1475.0</ele>
      </trkpt>
      <trkpt lat="46.001404" lon="6.947646">
        <time>1970-01-01T00:00:00+00:00</time>
        <ele>1474.0</ele>
      </trkpt>
      <trkpt lat="46.001486" lon="6.947713">
        <time>1970-01-01T00:00:00+00:00</time>
        <ele>1475.0</ele>
      </trkpt>
      <trkpt lat="46.001427" lon="6.947708">
        <time>1970-01-01T00:00:00+00:00</time>
        <ele>1475.0</ele>
      </trkpt>
      <trkpt lat="46.001458" lon="6.947666">
        <time>1970-01-01T00:00:00+00:00</time>
        <ele>1475.0</ele>
      </trkpt>
      <trkpt lat="46.001453" lon="6.947732">
        <time>1970-01-01T00:00:00+00:00</time>
        <ele>1475.0</ele>
      </trkpt>
    </trkseg>
  </trk>
</gpx>
